Regional Weather Roundup
Issued by NWS Portland, ME

Home | Current Version | Previous Version | Text Only | Print | Product List | Glossary On
Versions: 1 2 3 4 5 6 7 8 9 10 11 12 13 14 15 16 17 18 19 20 21 22 23 24 25 26 27 28 29 30 31 32 33 34 35 36 37 38 39 40 41 42 43 44 45 46 47 48 49 50
000
ASUS41 KGYX 201110
RWRGYX
WEATHER ROUNDUP FOR MAINE AND NEW HAMPSHIRE
NATIONAL WEATHER SERVICE GRAY ME
700 AM EDT MON OCT 20 2014

MEZ002-005-006-010-012-015-018-020-021-024-026-027-029-201200-
MAINE

CITY           SKY/WX    TMP DP  RH WIND       PRES   REMARKS
PORTLAND       MOCLDY    37  29  72 SW3       29.96R
SANFORD        CLOUDY    34  23  64 SW6       29.97R
BAR HARBOR     CLEAR     36  30  80 W5        29.89R
WISCASSET      PTCLDY    36  27  69 CALM      29.96R
ROCKLAND       CLEAR     37  27  65 W9        29.91R
FRYEBURG       CLOUDY    38  21  50 NW7       29.94R
LEWISTONAUBURN MOCLDY    37  21  52 NW5       29.94R
AUGUSTA        PTCLDY    38  22  52 W10       29.93R
WATERVILLE     CLEAR     37  21  52 W7        29.90R
BANGOR         MOCLDY    39  26  59 W10       29.89R
GREENVILLE       N/A     34  25  69 NW8       29.81R
MILLINOCKET    MOCLDY    37  26  64 W18G30    29.84S
HOULTON        CLOUDY    37  27  67 NW9       29.78R
PRESQUE ISLE   CLEAR     34  25  69 W8        29.76S
FRENCHVILLE    CLEAR     29  23  78 W14       29.73R WCI  18
CARIBOU        CLEAR     33  26  75 W7        29.75R
$$

NHZ002-005-008-009-011-012-014-201200-
NEW HAMPSHIRE

CITY           SKY/WX    TMP DP  RH WIND       PRES   REMARKS
PORTSMOUTH     MOCLDY    38  26  61 W10       29.98R
ROCHESTER      CLOUDY    37  25  61 VRB3      29.97R
NASHUA         MOCLDY    36  27  70 CALM      30.03R
MANCHESTER     CLOUDY    37  24  59 SW7       29.99R
CONCORD        CLOUDY    36  24  62 W5        29.99R
LACONIA        CLOUDY    37  23  56 W5        29.95S
PLYMOUTH       FAIR      37  30  77 NW7       29.97R
BERLIN         CLOUDY    35  24  64 CALM      29.95R
WHITEFIELD     CLOUDY    34  26  72 CALM      29.97R
JAFFREY        FAIR      33  25  72 S6        29.99R
LEBANON        PTCLDY    29  24  82 CALM      29.99F
MT WASHINGTON  MOCLDY    12   9  85 NW55G61     N/A  WCI -15
$$

VTZ005-007-008-201200-
VERMONT

CITY           SKY/WX    TMP DP  RH WIND       PRES   REMARKS
ST JOHNSBURY     N/A     37  26  64 MISG      29.97R
MONTPELIER     PTCLDY    32  27  81 S3        30.00S
BURLINGTON     MOCLDY    35  25  66 S6        30.00S
$$

MAZ007-012-024-CTZ003-RIZ002-NYZ038-NYZ072-201200-
SOUTHERN NEW ENGLAND AND NY

CITY           SKY/WX    TMP DP  RH WIND       PRES   REMARKS
BOSTON         PTCLDY    40  26  57 W9        30.04R
WORCESTER      CLEAR     29  25  85 SW5       30.01R
NANTUCKET      PTCLDY    41  28  60 NW6       30.05R
PROVIDENCE     PTCLDY    34  27  75 W5        30.07R
HARTFORD       MOCLDY    34  28  79 S3        30.05R
ALBANY         MOCLDY    32  28  85 CALM      30.04F
NEW YORK CITY  MOCLDY    45  30  55 W6        30.09F
$$

ANZ081-ANZ082-ANZ150-NHZ014-MEZ023>029-201200-
COASTAL MARINE OBSERVATIONS

STATION/POSITION TIME  TEMP    WIND        PRES    WAVE
                       AIR SEA DIR/SP/G            HT/PER
                 (UTC) (F)     (DEG/KT/KT) (MB)    (FT/S)
MATINICUS ROCK   1100          290/ 27/ 29 1012.6R
PORTLAND WX BUOY 1050   42 55  280/ 14/ 16 1014.1R   3/12
WELLS            1000   38 50  290/  5/  8 1013.6R
ISLE OF SHOALS   1100   40     270/ 20/ 23 1014.8R
JEFFREYS LEDGE   1021      57                N/A     5/ 5
CASHES LEDGE BUO 1050   46 55  280/ 16/ 19 1013.2R   5/ 6
$$

.............KEY..............
   WCI - WIND CHILL
   TC  - TEMPERATURE IN CELSIUS
   VSB - VISIBILITY IN MILES
   HX  - HEAT INDEX
   FAIR- INDICATES FEW OR NO CLOUDS BELOW 12,000 FT, WITH NO
         SIGNIFICANT WEATHER AND/OR OBSTRUCTIONS TO VISIBILITY.





USA.gov is the U.S. government's official web portal to all federal, state and local government web resources and services.